Juan Manuel Galvez International Airport
MHRO : rendu visible

Aérodrome :











RETROUVEZ-NOUS SUR...

 
LOGIN :

S'inscrire | Disclaimer

   EN    FR    IT 

 









Légende :    VFR   VFR Marginal   IFR   IFR Intensif   IFR Très Intensif
Visi : 
Plafond : 
>= 8 km
>= 3000ft
5 à 8 km
1000 à 3000 ft
1500m à 5 km
500 à 1000 ft
800 à 1500m
200 à 500 ft
< 800m
< 200 ft
Symboles :   Orages  Brouillard  Fortes neiges  Fortes précipitations  Vent > 20 kt






- Altitude de l'aérodrome : 18 ft
- Code IATA : RTB


MHRO - Juan Manuel Galvez International

DERNIER METAR :
  • 202100Z 09012KT 9999 FEW025 29/23 Q1014 A2995 NOSIG

METARs EXPIRÉS :
  • 202000Z 09010KT 9999 FEW025 29/24 Q1014 A2995 NOSIG
  • 201900Z 10010KT 9999 FEW025 29/24 Q1015 A2997 NOSIG

TAF TAF MHRO
Valide du 20 à 18h jusqu'au 21 à 18h UTC


201640Z 2018/2118 09008KT 9999 FEW020TCU TX29/2021Z TN26/2012Z
BECMG 2020/2022 05015KT FEW025
BECMG 2101/2103 SCT025 SCT080
BECMG 2106/2108 35004KT 5000 -RA SCT020TCU BKN080



MET'MAP, la Météo Aéronautique d'un coup d'oeil ! - Copyright ORBIFLY Décembre 2007 - Disclaimer

ORBIFLY MET'MAP TEAM :

Programmation & Développement : Alexandra Zaïnal
Sur une idée originale de : Baudouin d'Aumeries
Assistance à la programmation : Marc-Olivier Méhu
Soutien technique & logistique : Manuel Goepfert

Contact : metmap@orbifly.com




SOURCES & CREDITS :

   NOAA       Earth
Advisory